[[{"header":{"parameterUnit":"m.s-1","parameterCategory":1,"la1":30.2991,"la2":30.254,"lo1":-89.0895,"lo2":-89.0444,"dy":0.0017,"dx":0.0017,"nx":28,"ny":28,"refTime":"2023-08-04T03:00:00:Z","depth":0,"parameterNumber":2,"parameterNumberName":"U-component_of_WINDS"},"data":[0,0,0,0,0,0,0,0,0,0,0,0,0,0,0,0,0,0,0,0,0,0,0,0,0,0,0,0,0,0,0,0,0,0,0,0,0,0,0,0,0,0,0,0,0,0,0,0,0,0,0,0,0,0,0,0,0,0,1.6553,1.6555,0,1.6702,1.6704,1.6705,1.671,1.6708,1.6706,1.6705,1.6862,1.6867,1.6873,0,0,0,0,0,0,0,0,0,0,0,0,0,1.6278,1.6283,1.6553,1.6555,1.6557,1.6702,1.6704,1.6706,1.671,1.6708,1.6706,1.6704,1.686,1.6867,1.6874,0,0,0,0,0,0,0,0,0,0,0,0,0,1.6409,1.6284,1.6553,1.6577,1.658,1.6701,1.6704,1.6706,1.6711,1.6708,1.6705,1.6703,1.6857,1.6866,1.6875,1.6984,0,0,1.6902,1.6906,0,0,0,0,0,0,0,0,1.6402,1.6419,1.6571,1.6575,1.6579,1.6684,1.6664,1.68,1.6711,1.6661,1.6705,1.6701,1.6805,1.6818,1.6852,1.6991,1.6998,1.6902,1.6908,1.6912,1.6914,0,0,0,0,0,0,0,1.6393,1.6413,1.6612,1.6573,1.6578,1.6581,1.6597,1.669,1.6747,1.6665,1.6666,1.6683,1.6807,1.6844,1.6856,1.7,1.6902,1.691,1.6916,1.6919,1.7237,1.7239,0,0,0,0,0,0,1.6378,1.6405,1.6608,1.6617,1.6482,1.6588,1.6606,1.6654,1.6746,1.6757,1.6686,1.6683,1.683,1.6846,1.6862,1.6995,1.6912,1.692,1.6925,1.7233,1.7237,1.7241,0,0,0,0,0,0,1.6372,1.6396,1.6602,1.6511,1.6538,1.6596,1.665,1.6658,1.6695,1.6761,1.6772,1.6712,1.6828,1.6849,1.6953,1.7001,1.6924,1.6932,1.723,1.7235,1.7239,1.7263,0,0,0,0,0,0,1.6364,1.6394,1.6435,1.6512,1.6542,1.6689,1.6653,1.6663,1.6709,1.6707,1.6789,1.68,1.6828,1.694,1.6962,1.7011,1.6939,1.7226,1.7232,1.7237,1.7258,1.7268,1.7277,0,0,0,0,0,1.6354,1.6437,1.6437,1.6461,1.6595,1.6692,1.6709,1.6739,1.6713,1.6755,1.6798,1.6797,1.6992,1.695,1.6975,1.7028,1.7223,1.723,1.7237,1.7254,1.7266,1.7276,0,0,0,0,0,0,1.6366,1.6447,1.6448,1.6558,1.6618,1.6692,1.6747,1.675,1.682,1.6815,1.685,1.6869,1.6972,1.7011,1.6963,1.7139,1.7105,1.7117,1.7109,1.7121,1.713,1.7119,1.6946,0,0,0,0,0,1.638,1.6451,1.652,1.661,1.664,1.6688,1.6732,1.6749,1.6813,1.6838,1.6889,1.6952,1.7028,1.7077,1.715,1.7264,1.7282,1.7313,1.7322,1.7329,1.7339,1.7403,1.7417,1.7264,1.7264,1.7264,0,0,1.6413,1.6466,1.6509,1.6613,1.6662,1.6736,1.6709,1.6789,1.6844,1.6851,1.6952,1.6991,1.7064,1.7174,1.7224,1.7209,1.7386,1.7338,1.7343,1.735,1.7411,1.7426,1.7439,1.7269,1.7268,1.7267,0,0,1.6508,1.6556,1.6636,1.6685,1.6758,1.6789,1.6808,1.6883,1.6909,1.701,1.7017,1.7084,1.7213,1.7265,1.7308,1.7423,1.7425,1.7447,1.7494,1.7555,1.7567,1.7578,1.7619,1.7633,1.7457,1.7457,1.7457,0,1.6539,1.6649,1.6677,1.6756,1.6802,1.6811,1.6893,1.6939,1.7033,1.7065,1.7046,1.7208,1.7258,1.738,1.7408,1.7443,1.7466,1.7437,1.7563,1.7574,1.7585,1.7624,1.7639,1.7459,1.7459,1.7458,1.7458,0,1.6684,1.676,1.6816,1.6905,1.6957,1.7038,1.7079,1.7129,1.7142,1.7176,1.7279,1.7339,1.7424,1.7455,1.7469,1.7579,1.7567,1.7555,1.7522,1.7601,1.7638,1.7654,1.7462,1.7461,1.746,1.746,0,0,1.679,1.6893,1.6913,1.6953,1.7035,1.7095,1.7176,1.7258,1.73,1.7365,1.7434,1.7543,1.7532,1.7581,1.7602,1.7655,1.7743,1.7637,1.764,1.7654,1.7867,1.7875,1.7892,1.7744,1.7747,1.775,1.7861,0,1.6895,1.7037,1.7065,1.7189,1.726,1.727,1.734,1.7398,1.7433,1.7499,1.7537,1.7614,1.7594,1.7624,1.7677,1.772,1.7786,1.7713,1.781,1.7813,1.7791,1.7912,1.792,1.8022,1.7876,1.7878,1.788,0,1.7035,1.7102,1.7233,1.7304,1.7335,1.7398,1.7475,1.7538,1.7605,1.7626,1.768,1.7694,1.778,1.7742,1.7861,1.7811,1.7853,1.788,1.7885,1.7895,1.7851,1.7924,1.8055,1.807,1.7904,1.7902,1.79,0,1.7099,1.7222,1.7316,1.735,1.7436,1.748,1.7518,1.7582,1.7629,1.7697,1.7728,1.7806,1.7849,1.7909,1.7944,1.7914,1.8061,1.8026,1.8081,1.808,1.8111,1.8109,1.825,1.8139,1.8139,1.8138,1.8138,0,1.7213,1.7292,1.7346,1.7403,1.7493,1.7525,1.7614,1.7652,1.7708,1.7774,1.7788,1.785,1.7893,1.7961,1.7989,1.8084,1.8103,1.8123,1.8129,1.8121,1.8119,1.8149,1.8142,1.8143,1.8142,1.8141,1.814,0,1.7299,1.7338,1.7441,1.7514,1.7534,1.7597,1.7659,1.7717,1.7751,1.7834,1.7856,1.791,1.7991,1.8032,1.8134,1.8153,1.8259,1.8261,1.8236,1.8238,1.8291,1.8285,1.8456,1.848,1.8353,1.8354,1.8355,0,1.7368,1.743,1.7508,1.7553,1.7592,1.7664,1.7712,1.7746,1.7796,1.7876,1.7923,1.8005,1.8072,1.8202,1.8251,1.8329,1.8333,1.8387,1.8345,1.8335,1.8333,1.8329,1.8335,1.8395,1.8396,1.8397,1.8398,0,1.7487,1.7503,1.7571,1.7646,1.7703,1.7764,1.7824,1.786,1.7904,1.796,1.8042,1.8094,1.8197,1.8278,1.8359,1.84,1.8407,1.8411,1.8428,1.842,1.8402,1.8412,1.8256,1.8407,1.8406,1.8405,1.8405,1.8404,1.7567,1.7621,1.7685,1.7761,1.7809,1.7865,1.7922,1.7963,1.8032,1.8117,1.8134,1.8221,1.8287,1.8397,1.844,1.8509,1.8498,1.8522,1.8528,1.8534,1.8536,1.8391,1.8525,1.8524,1.8524,1.8524,1.8524,0,1.7685,1.7727,1.7796,1.7879,1.7939,1.7938,1.8005,1.8055,1.8131,1.8191,1.8257,1.8351,1.843,1.8485,1.8565,1.861,1.8615,1.863,1.8627,1.8636,1.8542,1.8519,1.8625,1.8625,1.8625,1.8625,1.8625,1.8625,1.7754,1.7847,1.787,1.7987,1.8029,1.8113,1.8151,1.8203,1.8251,1.8356,1.8421,1.8456,1.8514,1.8599,1.8671,1.8685,1.8714,1.8729,1.8743,1.8654,1.8643,1.8633,1.8611,1.8735,1.8735,1.8831,1.8832,1.8833]},{"header":{"parameterUnit":"m.s-1","parameterCategory":1,"la1":30.2991,"la2":30.254,"lo1":-89.0895,"lo2":-89.0444,"dy":0.0017,"dx":0.0017,"nx":28,"ny":28,"refTime":"2023-08-04T03:00:00:Z","depth":0,"parameterNumber":3,"parameterNumberName":"V-component_of_WINDS"},"data":[0,0,0,0,0,0,0,0,0,0,0,0,0,0,0,0,0,0,0,0,0,0,0,0,0,0,0,0,0,0,0,0,0,0,0,0,0,0,0,0,0,0,0,0,0,0,0,0,0,0,0,0,0,0,0,0,0,0,4.0189,4.019,0,4.0259,4.026,4.026,4.0232,4.0231,4.0229,4.0228,4.0297,4.03,4.0303,0,0,0,0,0,0,0,0,0,0,0,0,0,4.0025,4.0028,4.0189,4.019,4.0191,4.0259,4.026,4.0261,4.0233,4.0231,4.0229,4.0227,4.0295,4.0299,4.0303,0,0,0,0,0,0,0,0,0,0,0,0,0,4.0096,4.0029,4.0189,4.0185,4.0185,4.0259,4.026,4.0261,4.0233,4.0231,4.0228,4.0226,4.0294,4.0299,4.0304,4.0384,0,0,4.0319,4.0322,0,0,0,0,0,0,0,0,4.0092,4.0102,4.0185,4.0185,4.0186,4.0234,4.0227,4.0302,4.0234,4.0215,4.0228,4.0225,4.0278,4.0284,4.0302,4.0387,4.039,4.032,4.0323,4.0325,4.0326,0,0,0,0,0,0,0,4.0087,4.0099,4.0216,4.0186,4.0187,4.0178,4.0185,4.0241,4.0259,4.0216,4.0214,4.0223,4.0277,4.0298,4.0304,4.0391,4.032,4.0324,4.0327,4.0329,4.0539,4.0542,0,0,0,0,0,0,4.0083,4.0095,4.0214,4.0219,4.0132,4.0183,4.0191,4.0221,4.0258,4.0262,4.0225,4.0222,4.029,4.0298,4.0306,4.0398,4.0325,4.033,4.0333,4.0537,4.054,4.0543,0,0,0,0,0,0,4.0079,4.0093,4.0211,4.0156,4.017,4.0188,4.0222,4.0224,4.0244,4.0265,4.0268,4.0243,4.0289,4.0299,4.0364,4.04,4.0332,4.0337,4.0534,4.0538,4.0541,4.0585,0,0,0,0,0,0,4.0075,4.0092,4.0125,4.0157,4.0174,4.027,4.0225,4.0227,4.0253,4.0249,4.0282,4.0285,4.0287,4.0356,4.0369,4.0406,4.0341,4.053,4.0535,4.054,4.058,4.059,4.0598,0,0,0,0,0,4.0069,4.0135,4.0127,4.0141,4.0215,4.0272,4.0281,4.0283,4.0256,4.0287,4.03,4.0284,4.0395,4.0363,4.0377,4.0416,4.0528,4.0534,4.054,4.0576,4.0588,4.0598,0,0,0,0,0,0,4.0107,4.0139,4.013,4.021,4.0238,4.0267,4.0307,4.0296,4.0332,4.0327,4.0327,4.0334,4.04,4.0415,4.0379,4.0492,4.0457,4.0466,4.048,4.0491,4.05,4.0494,4.0345,0,0,0,0,0,4.0125,4.017,4.0196,4.0263,4.0277,4.029,4.0315,4.0313,4.0343,4.0354,4.0372,4.04,4.044,4.0467,4.0506,4.0583,4.0587,4.0616,4.0625,4.0632,4.0639,4.0675,4.0687,4.0561,4.0561,4.0561,0,0,4.0162,4.0185,4.0214,4.0271,4.0293,4.0337,4.03,4.035,4.0382,4.0362,4.0423,4.0437,4.0468,4.0537,4.0569,4.0552,4.0674,4.0639,4.0645,4.0648,4.0682,4.0694,4.0704,4.0565,4.0565,4.0564,0,0,4.025,4.0275,4.033,4.0353,4.0386,4.0393,4.0406,4.0436,4.0444,4.0506,4.049,4.0528,4.0599,4.0619,4.064,4.0732,4.0717,4.0744,4.0789,4.0825,4.0834,4.0843,4.0871,4.0882,4.0751,4.0752,4.0752,0,4.0292,4.0359,4.0361,4.041,4.0433,4.0417,4.0471,4.0493,4.0537,4.0552,4.0533,4.0618,4.0638,4.071,4.0731,4.075,4.0762,4.0739,4.0833,4.0842,4.085,4.0877,4.0888,4.0754,4.0754,4.0754,4.0753,0,4.0405,4.0452,4.0493,4.0534,4.0563,4.0615,4.0621,4.065,4.0645,4.0653,4.0713,4.0736,4.0777,4.0794,4.0791,4.0864,4.0852,4.0833,4.0797,4.0865,4.089,4.09,4.0758,4.0757,4.0757,4.0756,0,0,4.0521,4.056,4.0575,4.0591,4.0625,4.066,4.0709,4.0749,4.0771,4.0801,4.084,4.0898,4.088,4.0902,4.0901,4.0932,4.0997,4.0909,4.0909,4.0921,4.1074,4.1085,4.1098,4.0989,4.0991,4.0993,4.107,0,4.0609,4.0696,4.0696,4.0775,4.0815,4.0799,4.0841,4.0864,4.0873,4.0906,4.0915,4.0955,4.093,4.0942,4.0973,4.0983,4.1028,4.0978,4.1021,4.1023,4.1011,4.1111,4.1125,4.1197,4.108,4.1082,4.1083,0,4.0724,4.0755,4.0838,4.0861,4.0878,4.0916,4.0949,4.0984,4.1008,4.1012,4.1035,4.1028,4.1074,4.1039,4.1101,4.1067,4.1084,4.1091,4.1094,4.1096,4.1055,4.1112,4.122,4.1229,4.11,4.1098,4.1097,0,4.0793,4.0858,4.0914,4.0929,4.0959,4.0985,4.0999,4.1021,4.1043,4.1073,4.1086,4.1121,4.1139,4.1165,4.1165,4.114,4.1226,4.1192,4.1227,4.1227,4.1244,4.1243,4.1353,4.1262,4.1262,4.1261,4.1261,0,4.089,4.094,4.0945,4.0979,4.1033,4.1032,4.1085,4.1096,4.1116,4.115,4.1138,4.117,4.1171,4.1203,4.1204,4.1252,4.1262,4.1263,4.1262,4.1262,4.1261,4.1272,4.1265,4.1264,4.1264,4.1263,4.1263,0,4.0976,4.0983,4.1042,4.1064,4.1071,4.1109,4.1127,4.1158,4.1164,4.1207,4.1217,4.1226,4.1263,4.1266,4.131,4.131,4.1367,4.1363,4.1358,4.1356,4.139,4.1385,4.1508,4.1522,4.1425,4.1426,4.1427,0,4.1036,4.1073,4.1098,4.112,4.1134,4.117,4.1192,4.1192,4.1214,4.1243,4.127,4.1305,4.1332,4.1391,4.14,4.1432,4.1426,4.1466,4.143,4.1427,4.1421,4.1417,4.1419,4.1473,4.1474,4.1475,4.1475,0,4.1138,4.1138,4.117,4.1202,4.1228,4.1253,4.1277,4.1295,4.1297,4.1323,4.1359,4.1381,4.1423,4.1456,4.1486,4.1498,4.1486,4.1487,4.1496,4.1495,4.1489,4.1488,4.1373,4.1483,4.1483,4.1482,4.1482,4.1481,4.121,4.124,4.1262,4.1296,4.1314,4.1335,4.1363,4.1372,4.1403,4.1437,4.1435,4.1474,4.1494,4.1533,4.1547,4.1576,4.1562,4.1576,4.1579,4.1582,4.1583,4.1487,4.1582,4.1582,4.1581,4.1581,4.1581,0,4.1308,4.132,4.1352,4.1384,4.141,4.1397,4.1421,4.1443,4.1478,4.1498,4.1525,4.1564,4.1596,4.1607,4.1637,4.1658,4.1653,4.1665,4.1662,4.1664,4.1596,4.1583,4.1669,4.1669,4.1669,4.1669,4.1669,4.1669,4.1362,4.1411,4.1413,4.1469,4.1481,4.1519,4.1533,4.1551,4.1567,4.1611,4.1637,4.1644,4.1659,4.169,4.1717,4.1719,4.1729,4.1743,4.1743,4.1679,4.167,4.1661,4.1649,4.1747,4.1747,4.1808,4.1808,4.1809]}]]